| time (UTC) | temp F | wind direction | speed MPH | gust MPH | rain 1hr in | rain 24hr in | rain mn in | humidity % | barometer mb |
| 20260509150921 | 66 | 267 | 1.0 | 3.0 | 0.08 | 5.27 | 1.88 | 100 | 1012.2 |
| 20260509150423 | 65 | 285 | 1.0 | 3.0 | 0.10 | 5.27 | 1.88 | 100 | 1011.8 |
| 20260509145923 | 65 | 264 | 2.0 | 4.0 | 0.11 | 5.27 | 1.88 | 100 | 1011.7 |
| 20260509145422 | 65 | 233 | 3.0 | 4.0 | 0.14 | 5.27 | 1.88 | 100 | 1012.0 |
| 20260509144922 | 65 | 298 | 2.0 | 4.0 | 0.19 | 5.27 | 1.88 | 100 | 1012.0 |
| 20260509144421 | 65 | 271 | 3.0 | 6.0 | 0.21 | 5.27 | 1.88 | 100 | 1011.8 |
| 20260509143922 | 65 | 318 | 3.0 | 6.0 | 0.21 | 5.27 | 1.88 | 100 | 1011.8 |
| 20260509143421 | 65 | 272 | 3.0 | 6.0 | 0.24 | 5.27 | 1.88 | 100 | 1011.6 |
| 20260509142921 | 65 | 273 | 3.0 | 6.0 | 0.28 | 5.27 | 1.88 | 100 | 1011.5 |
| 20260509142424 | 65 | 271 | 2.0 | 5.0 | 0.35 | 5.27 | 1.88 | 100 | 1011.5 |
| 20260509141920 | 65 | 272 | 2.0 | 4.0 | 0.43 | 5.24 | 1.86 | 100 | 1011.4 |
| 20260509141419 | 65 | 260 | 2.0 | 4.0 | 0.56 | 5.22 | 1.83 | 100 | 1011.5 |
| 20260509140920 | 65 | 283 | 2.0 | 5.0 | 0.63 | 5.19 | 1.81 | 100 | 1011.6 |
| 20260509140414 | 65 | 305 | 2.0 | 5.0 | 0.75 | 5.17 | 1.78 | 100 | 1011.6 |
| 20260509135908 | 65 | 267 | 2.0 | 5.0 | 0.79 | 5.16 | 1.77 | 100 | 1012.1 |
| 20260509135402 | 65 | 319 | 1.0 | 4.0 | 0.79 | 5.13 | 1.75 | 100 | 1011.9 |
| 20260509134857 | 65 | 170 | 2.0 | 6.0 | 0.75 | 5.07 | 1.69 | 100 | 1011.5 |
| 20260509134350 | 65 | 265 | 1.0 | 6.0 | 0.75 | 5.06 | 1.67 | 100 | 1011.4 |
| 20260509133844 | 65 | 215 | 1.0 | 3.0 | 0.76 | 5.06 | 1.67 | 100 | 1011.4 |
| 20260509133338 | 65 | 278 | 1.0 | 3.0 | 0.75 | 5.03 | 1.64 | 100 | 1011.8 |
| 20260509133105 | 65 | 260 | 1.0 | 3.0 | 0.76 | 4.98 | 1.60 | 100 | 1012.0 |
| 20260509132325 | 65 | 296 | 0.0 | 3.0 | 0.85 | 4.90 | 1.51 | 100 | 1011.9 |
| 20260509131820 | 65 | 163 | 0.0 | 1.0 | 0.93 | 4.78 | 1.40 | 100 | 1012.1 |
| 20260509131314 | 65 | 162 | 0.0 | 1.0 | 0.93 | 4.64 | 1.26 | 100 | 1011.8 |
| 20260509130808 | 65 | 169 | 0.0 | 1.0 | 0.92 | 4.51 | 1.14 | 100 | 1012.2 |
| 20260509130302 | 65 | 169 | 0.0 | 2.0 | 0.97 | 4.41 | 1.03 | 100 | 1012.0 |
| 20260509125756 | 65 | 214 | 1.0 | 3.0 | 0.94 | 4.36 | 0.97 | 100 | 1011.6 |
| 20260509125250 | 65 | 225 | 1.0 | 3.0 | 0.93 | 4.33 | 0.95 | 99 | 1011.6 |
| 20260509124743 | 65 | 226 | 1.0 | 3.0 | 0.92 | 4.32 | 0.93 | 99 | 1011.5 |
| 20260509124238 | 65 | 183 | 1.0 | 3.0 | 0.91 | 4.31 | 0.92 | 99 | 1011.4 |
| 20260509123733 | 65 | 179 | 1.0 | 2.0 | 0.90 | 4.30 | 0.91 | 99 | 1011.2 |
| 20260509123226 | 65 | 242 | 1.0 | 5.0 | 0.87 | 4.27 | 0.88 | 99 | 1011.7 |
| 20260509122720 | 65 | 241 | 1.0 | 5.0 | 0.79 | 4.19 | 0.80 | 99 | 1012.0 |
| 20260509122214 | 65 | 248 | 1.0 | 5.0 | 0.62 | 4.02 | 0.63 | 98 | 1012.1 |
| 20260509121935 | 66 | 167 | 2.0 | 5.0 | 0.41 | 3.81 | 0.44 | 98 | 1011.9 |
| 20260509121202 | 66 | 179 | 3.0 | 11.0 | 0.25 | 3.65 | 0.29 | 98 | 1011.9 |
| 20260509120655 | 67 | 150 | 3.0 | 11.0 | 0.16 | 3.56 | 0.18 | 97 | 1011.7 |
| 20260509120150 | 68 | 210 | 3.0 | 10.0 | 0.03 | 3.43 | 0.05 | 96 | 1011.7 |
| 20260509115644 | 70 | 96 | 1.0 | 10.0 | 0.01 | 3.41 | 0.02 | 96 | 1011.6 |
| 20260509115138 | 71 | 172 | 0.0 | 2.0 | 0.00 | 3.40 | 0.01 | 99 | 1011.3 |
| 20260509114632 | 71 | 281 | 0.0 | 1.0 | 0.00 | 3.40 | 0.01 | 99 | 1010.7 |
| 20260509114348 | 71 | 284 | 0.0 | 1.0 | 0.00 | 3.40 | 0.01 | 99 | 1010.3 |
| 20260509113625 | 71 | 284 | 0.0 | 1.0 | 0.00 | 3.40 | 0.01 | 99 | 1010.1 |
| 20260509113114 | 71 | 284 | 0.0 | 1.0 | 0.00 | 3.40 | 0.01 | 98 | 1010.0 |
| 20260509112832 | 71 | 284 | 1.0 | 3.0 | 0.00 | 3.40 | 0.01 | 98 | 1009.8 |
| 20260509112102 | 71 | 284 | 1.0 | 3.0 | 0.00 | 3.40 | 0.01 | 98 | 1009.7 |
| 20260509111555 | 71 | 65 | 1.0 | 3.0 | 0.00 | 3.40 | 0.01 | 98 | 1009.6 |
| 20260509111050 | 71 | 332 | 1.0 | 4.0 | 0.00 | 3.40 | 0.01 | 98 | 1009.6 |
| 20260509110804 | 71 | 274 | 2.0 | 4.0 | 0.00 | 3.40 | 0.01 | 98 | 1009.2 |
| 20260509110044 | 71 | 277 | 2.0 | 4.0 | 0.00 | 3.40 | 0.01 | 98 | 1009.1 |
| 20260509105544 | 71 | 299 | 2.0 | 3.0 | 0.00 | 3.40 | 0.01 | 98 | 1008.9 |
| 20260509105044 | 71 | 274 | 2.0 | 3.0 | 0.00 | 3.40 | 0.01 | 98 | 1008.6 |
| 20260509104543 | 71 | 317 | 3.0 | 7.0 | 0.00 | 3.40 | 0.01 | 98 | 1008.8 |
| 20260509104043 | 71 | 281 | 3.0 | 7.0 | 0.00 | 3.40 | 0.01 | 98 | 1008.9 |
| 20260509103547 | 71 | 300 | 3.0 | 7.0 | 0.00 | 3.40 | 0.01 | 98 | 1008.7 |
| 20260509103045 | 71 | 338 | 2.0 | 5.0 | 0.00 | 3.40 | 0.01 | 98 | 1009.0 |
| 20260509102804 | 71 | 267 | 2.0 | 4.0 | 0.00 | 3.40 | 0.01 | 98 | 1009.0 |
| 20260509102044 | 71 | 272 | 2.0 | 4.0 | 0.00 | 3.40 | 0.01 | 98 | 1009.2 |
| 20260509101541 | 71 | 302 | 2.0 | 4.0 | 0.00 | 3.40 | 0.01 | 99 | 1009.1 |
| 20260509101041 | 71 | 294 | 2.0 | 4.0 | 0.00 | 3.40 | 0.01 | 99 | 1009.2 |
| 20260509101021 | 70 | 36 | 1.0 | 4.0 | 0.00 | 3.40 | 0.01 | 99 | 1009.0 |
| 20260509100042 | 70 | 263 | 1.0 | 2.0 | 0.00 | 3.40 | 0.01 | 99 | 1009.0 |
| 20260509095541 | 70 | 263 | 2.0 | 5.0 | 0.00 | 3.40 | 0.01 | 99 | 1008.8 |
| 20260509095041 | 70 | 311 | 2.0 | 5.0 | 0.00 | 3.40 | 0.01 | 99 | 1008.5 |
| 20260509094542 | 70 | 103 | 1.0 | 3.0 | 0.00 | 3.40 | 0.01 | 99 | 1008.5 |
| 20260509094045 | 70 | 214 | 2.0 | 3.0 | 0.00 | 3.40 | 0.01 | 99 | 1008.4 |
| 20260509093539 | 70 | 242 | 2.0 | 3.0 | 0.00 | 3.40 | 0.01 | 99 | 1008.1 |
| 20260509093039 | 70 | 246 | 2.0 | 3.0 | 0.00 | 3.40 | 0.01 | 99 | 1008.3 |
| 20260509092538 | 70 | 245 | 1.0 | 3.0 | 0.00 | 3.40 | 0.01 | 99 | 1008.4 |
| 20260509092036 | 70 | 245 | 0.0 | 2.0 | 0.00 | 3.40 | 0.01 | 99 | 1008.6 |
| 20260509091534 | 70 | 245 | 0.0 | 2.0 | 0.00 | 3.40 | 0.01 | 99 | 1008.7 |
| 20260509091035 | 70 | 260 | 1.0 | 3.0 | 0.00 | 3.40 | 0.01 | 99 | 1008.6 |
| 20260509090757 | 70 | 260 | 2.0 | 4.0 | 0.00 | 3.40 | 0.01 | 99 | 1008.6 |
| 20260509090032 | 70 | 272 | 2.0 | 4.0 | 0.00 | 3.40 | 0.01 | 99 | 1008.6 |
| 20260509085529 | 70 | 260 | 2.0 | 4.0 | 0.00 | 3.40 | 0.01 | 99 | 1008.8 |
| 20260509085029 | 70 | 261 | 2.0 | 4.0 | 0.00 | 3.40 | 0.01 | 99 | 1008.9 |
| 20260509084530 | 70 | 261 | 2.0 | 5.0 | 0.00 | 3.40 | 0.01 | 99 | 1009.0 |
| 20260509084026 | 70 | 304 | 2.0 | 5.0 | 0.00 | 3.40 | 0.01 | 99 | 1009.2 |
| 20260509083526 | 70 | 256 | 3.0 | 5.0 | 0.00 | 3.40 | 0.01 | 99 | 1009.4 |
| 20260509083028 | 70 | 310 | 3.0 | 5.0 | 0.00 | 3.40 | 0.01 | 100 | 1009.3 |
| 20260509082527 | 70 | 272 | 3.0 | 5.0 | 0.00 | 3.40 | 0.01 | 100 | 1009.4 |
| 20260509082027 | 70 | 337 | 3.0 | 5.0 | 0.00 | 3.40 | 0.01 | 100 | 1009.4 |
| 20260509081748 | 70 | 309 | 2.0 | 4.0 | 0.00 | 3.40 | 0.01 | 100 | 1009.4 |
| 20260509081024 | 69 | 264 | 2.0 | 4.0 | 0.00 | 3.40 | 0.01 | 100 | 1009.6 |
| 20260509080522 | 69 | 272 | 2.0 | 4.0 | 0.00 | 3.40 | 0.01 | 100 | 1009.7 |
| 20260509080246 | 69 | 272 | 2.0 | 4.0 | 0.00 | 3.40 | 0.01 | 100 | 1009.6 |
| 20260509075521 | 69 | 239 | 1.0 | 4.0 | 0.00 | 3.40 | 0.01 | 100 | 1009.7 |
| 20260509075019 | 69 | 274 | 2.0 | 4.0 | 0.00 | 3.40 | 0.01 | 100 | 1009.8 |
| 20260509074520 | 69 | 288 | 2.0 | 4.0 | 0.00 | 3.40 | 0.01 | 100 | 1009.8 |
| 20260509074018 | 69 | 310 | 2.0 | 4.0 | 0.00 | 3.40 | 0.01 | 100 | 1009.8 |
| 20260509073523 | 69 | 272 | 3.0 | 6.0 | 0.00 | 3.40 | 0.01 | 100 | 1010.0 |
| 20260509073019 | 69 | 262 | 4.0 | 6.0 | 0.00 | 3.40 | 0.01 | 100 | 1010.1 |
| 20260509072518 | 69 | 278 | 2.0 | 6.0 | 0.00 | 3.40 | 0.01 | 100 | 1010.0 |
| 20260509072018 | 69 | 284 | 1.0 | 3.0 | 0.00 | 3.40 | 0.01 | 100 | 1010.7 |
| 20260509071519 | 69 | 176 | 0.0 | 5.0 | 0.00 | 3.40 | 0.01 | 100 | 1011.1 |
| 20260509071017 | 69 | 137 | 0.0 | 5.0 | 0.00 | 3.40 | 0.01 | 100 | 1011.4 |
| 20260509070516 | 69 | 126 | 1.0 | 5.0 | 0.00 | 3.40 | 0.01 | 100 | 1011.1 |
| 20260509070015 | 69 | 241 | 2.0 | 5.0 | 0.00 | 3.40 | 0.01 | 100 | 1010.4 |
| 20260509065516 | 69 | 269 | 2.0 | 4.0 | 0.00 | 3.40 | 0.01 | 100 | 1010.4 |
| 20260509065014 | 69 | 270 | 0.0 | 3.0 | 0.00 | 3.40 | 0.01 | 100 | 1010.4 |
| 20260509064516 | 69 | 182 | 0.0 | 1.0 | 0.00 | 3.40 | 0.01 | 100 | 1010.6 |
| 20260509064015 | 69 | 182 | 0.0 | 1.0 | 0.00 | 3.40 | 0.01 | 100 | 1010.7 |
| 20260509063515 | 69 | 182 | 0.0 | 1.0 | 0.00 | 3.40 | 0.01 | 100 | 1010.8 |
| 20260509063245 | 69 | 182 | 0.0 | 1.0 | 0.00 | 3.40 | 0.01 | 100 | 1010.8 |
| 20260509062516 | 69 | 182 | 0.0 | 0.0 | 0.01 | 3.40 | 0.01 | 100 | 1010.9 |
| 20260509062014 | 69 | 182 | 0.0 | 0.0 | 0.01 | 3.40 | 0.01 | 100 | 1011.1 |
| 20260509061741 | 69 | 182 | 0.0 | 0.0 | 0.01 | 3.40 | 0.01 | 100 | 1011.1 |
| 20260509061014 | 69 | 182 | 0.0 | 0.0 | 0.01 | 3.40 | 0.01 | 100 | 1011.1 |
| 20260509060516 | 69 | 182 | 0.0 | 0.0 | 0.01 | 3.40 | 0.01 | 100 | 1011.1 |
| 20260509060016 | 69 | 182 | 0.0 | 1.0 | 0.01 | 3.40 | 0.01 | 100 | 1011.3 |
| 20260509055516 | 69 | 167 | 0.0 | 1.0 | 0.01 | 3.40 | 0.01 | 100 | 1011.4 |
| 20260509055012 | 69 | 165 | 0.0 | 1.0 | 0.01 | 3.40 | 0.01 | 100 | 1011.2 |
| 20260509054513 | 69 | 56 | 0.0 | 0.0 | 0.01 | 3.40 | 0.01 | 100 | 1011.2 |
| 20260509054012 | 69 | 57 | 0.0 | 0.0 | 0.01 | 3.40 | 0.01 | 99 | 1011.1 |
| 20260509053514 | 69 | 57 | 0.0 | 1.0 | 0.01 | 3.40 | 0.01 | 99 | 1011.1 |
| 20260509053013 | 69 | 57 | 0.0 | 2.0 | 0.01 | 3.40 | 0.01 | 99 | 1011.1 |
| 20260509052512 | 69 | 57 | 0.0 | 2.0 | 0.00 | 3.39 | 0.00 | 99 | 1011.0 |
| 20260509052007 | 69 | 57 | 0.0 | 0.0 | 0.00 | 3.39 | 0.00 | 99 | 1011.1 |
| 20260509051506 | 69 | 57 | 0.0 | 0.0 | 0.00 | 3.39 | 0.00 | 99 | 1011.6 |
| 20260509051005 | 69 | 57 | 0.0 | 0.0 | 0.00 | 3.39 | 0.00 | 99 | 1011.8 |
| 20260509050503 | 69 | 57 | 0.0 | 1.0 | 0.01 | 3.39 | 0.00 | 99 | 1012.0 |
| 20260509050224 | 69 | 57 | 1.0 | 3.0 | 0.22 | 3.39 | 3.39 | 99 | 1011.8 |
| 20260509045720 | 69 | 54 | 1.0 | 3.0 | 0.41 | 3.39 | 3.39 | 99 | 1011.7 |
| 20260509045217 | 69 | 89 | 1.0 | 2.0 | 0.41 | 3.39 | 3.39 | 99 | 1011.5 |
| 20260509044455 | 70 | 89 | 1.0 | 3.0 | 0.41 | 3.39 | 3.39 | 98 | 1011.7 |
| 20260509043956 | 70 | 89 | 1.0 | 3.0 | 0.41 | 3.39 | 3.39 | 98 | 1011.6 |
| 20260509043456 | 70 | 80 | 2.0 | 4.0 | 0.41 | 3.39 | 3.39 | 98 | 1011.3 |
| 20260509042952 | 70 | 65 | 2.0 | 6.0 | 0.41 | 3.39 | 3.39 | 98 | 1011.2 |
| 20260509042454 | 70 | 30 | 4.0 | 9.0 | 0.41 | 3.39 | 3.39 | 98 | 1011.0 |
| 20260509041953 | 70 | 273 | 6.0 | 9.0 | 0.41 | 3.39 | 3.39 | 98 | 1010.7 |
| 20260509041454 | 70 | 284 | 5.0 | 10.0 | 0.41 | 3.39 | 3.39 | 99 | 1010.9 |
| 20260509040953 | 69 | 277 | 3.0 | 10.0 | 0.41 | 3.39 | 3.39 | 100 | 1010.7 |
| 20260509040454 | 69 | 263 | 3.0 | 10.0 | 0.40 | 3.38 | 3.39 | 100 | 1011.3 |
| 20260509035956 | 69 | 261 | 2.0 | 10.0 | 0.19 | 3.17 | 3.19 | 100 | 1012.1 |
| 20260509035721 | 68 | 165 | 1.0 | 6.0 | 0.00 | 2.98 | 2.98 | 100 | 1013.1 |
| 20260509034956 | 68 | 120 | 0.0 | 2.0 | 0.00 | 2.98 | 2.98 | 100 | 1012.2 |
| 20260509034445 | 68 | 119 | 0.0 | 1.0 | 0.00 | 2.98 | 2.98 | 100 | 1011.5 |
| 20260509033947 | 68 | 120 | 0.0 | 1.0 | 0.00 | 2.98 | 2.98 | 100 | 1011.5 |
| 20260509033441 | 68 | 257 | 0.0 | 1.0 | 0.00 | 2.98 | 2.98 | 100 | 1011.3 |
| 20260509032934 | 68 | 257 | 0.0 | 1.0 | 0.00 | 2.98 | 2.98 | 100 | 1011.5 |
| 20260509032429 | 68 | 257 | 0.0 | 1.0 | 0.00 | 2.98 | 2.98 | 100 | 1011.7 |
| 20260509031923 | 68 | 257 | 0.0 | 1.0 | 0.00 | 2.98 | 2.98 | 100 | 1011.4 |
| 20260509031417 | 68 | 257 | 0.0 | 1.0 | 0.00 | 2.98 | 2.98 | 100 | 1011.2 |
| 20260509031143 | 68 | 257 | 0.0 | 1.0 | 0.00 | 2.98 | 2.98 | 100 | 1011.3 |
| 20260509030402 | 68 | 257 | 1.0 | 3.0 | 0.00 | 2.98 | 2.98 | 100 | 1011.3 |
| 20260509025856 | 68 | 257 | 2.0 | 3.0 | 0.00 | 2.98 | 2.98 | 100 | 1011.1 |
| 20260509025349 | 68 | 258 | 1.0 | 3.0 | 0.00 | 2.98 | 2.98 | 100 | 1011.0 |
| 20260509024844 | 68 | 270 | 1.0 | 3.0 | 0.00 | 2.98 | 2.98 | 100 | 1011.1 |
| 20260509024344 | 68 | 269 | 2.0 | 3.0 | 0.00 | 2.98 | 2.98 | 100 | 1010.9 |
| 20260509023841 | 68 | 277 | 1.0 | 3.0 | 0.00 | 2.98 | 2.98 | 100 | 1010.5 |
| 20260509023339 | 68 | 260 | 0.0 | 2.0 | 0.00 | 2.98 | 2.98 | 100 | 1010.7 |
| 20260509022840 | 68 | 260 | 0.0 | 1.0 | 0.00 | 2.98 | 2.98 | 100 | 1010.8 |
| 20260509022652 | 68 | 260 | 0.0 | 1.0 | 0.00 | 2.98 | 2.98 | 100 | 1010.8 |
| 20260509022602 | 68 | 260 | 0.0 | 1.0 | 0.00 | 2.98 | 2.98 | 100 | 1010.9 |
| 20260509021335 | 68 | 260 | 0.0 | 0.0 | 0.00 | 2.98 | 2.98 | 100 | 1011.0 |
| 20260509020834 | 68 | 260 | 1.0 | 2.0 | 0.00 | 2.98 | 2.98 | 100 | 1011.1 |
| 20260509020555 | 68 | 260 | 1.0 | 2.0 | 0.00 | 2.98 | 2.98 | 100 | 1010.8 |
| 20260509020057 | 68 | 260 | 1.0 | 2.0 | 0.00 | 2.98 | 2.98 | 100 | 1010.6 |
| 20260509015332 | 68 | 260 | 1.0 | 2.0 | 0.00 | 2.98 | 2.98 | 100 | 1010.6 |
| 20260509014834 | 68 | 260 | 1.0 | 3.0 | 0.00 | 2.98 | 2.98 | 100 | 1010.7 |
| 20260509014330 | 68 | 260 | 2.0 | 4.0 | 0.00 | 2.98 | 2.98 | 100 | 1010.7 |
| 20260509013830 | 68 | 265 | 2.0 | 4.0 | 0.00 | 2.98 | 2.98 | 100 | 1010.6 |
| 20260509013329 | 68 | 267 | 1.0 | 3.0 | 0.00 | 2.98 | 2.98 | 100 | 1010.5 |
| 20260509012828 | 68 | 265 | 1.0 | 1.0 | 0.00 | 2.98 | 2.98 | 100 | 1011.1 |
| 20260509012329 | 68 | 265 | 1.0 | 2.0 | 0.00 | 2.98 | 2.98 | 100 | 1010.8 |
| 20260509011830 | 68 | 265 | 2.0 | 3.0 | 0.00 | 2.98 | 2.98 | 100 | 1010.7 |
| 20260509011329 | 68 | 269 | 1.0 | 3.0 | 0.00 | 2.98 | 2.98 | 100 | 1010.7 |
| 20260509010828 | 68 | 283 | 1.0 | 2.0 | 0.00 | 2.98 | 2.98 | 100 | 1010.9 |
| 20260509010329 | 68 | 270 | 0.0 | 1.0 | 0.00 | 2.98 | 2.98 | 100 | 1011.0 |
| 20260509005830 | 68 | 271 | 0.0 | 2.0 | 0.00 | 2.98 | 2.98 | 100 | 1011.1 |
| 20260509005329 | 68 | 271 | 1.0 | 2.0 | 0.00 | 2.98 | 2.98 | 100 | 1010.9 |
| 20260509004828 | 68 | 271 | 1.0 | 2.0 | 0.00 | 2.98 | 2.98 | 100 | 1010.5 |
| 20260509004330 | 68 | 274 | 0.0 | 2.0 | 0.00 | 2.98 | 2.98 | 100 | 1010.5 |
| 20260509003829 | 68 | 259 | 0.0 | 1.0 | 0.00 | 2.98 | 2.98 | 100 | 1010.6 |
| 20260509003326 | 68 | 259 | 0.0 | 3.0 | 0.00 | 2.98 | 2.98 | 100 | 1010.6 |
| 20260509002825 | 68 | 259 | 1.0 | 4.0 | 0.00 | 2.98 | 2.98 | 100 | 1010.6 |
| 20260509002324 | 68 | 270 | 2.0 | 5.0 | 0.00 | 2.98 | 2.98 | 100 | 1010.3 |
| 20260509001826 | 68 | 305 | 4.0 | 7.0 | 0.01 | 2.98 | 2.98 | 100 | 1010.3 |
| 20260509001328 | 68 | 325 | 5.0 | 8.0 | 0.02 | 2.98 | 2.98 | 100 | 1010.0 |
| 20260509000822 | 68 | 292 | 3.0 | 8.0 | 0.07 | 2.98 | 2.98 | 100 | 1010.0 |
| 20260509000322 | 68 | 308 | 0.0 | 4.0 | 0.07 | 2.98 | 2.98 | 100 | 1010.6 |
| 20260508235823 | 68 | 164 | 0.0 | 0.0 | 0.09 | 2.98 | 2.98 | 100 | 1010.9 |
| 20260508235317 | 68 | 164 | 0.0 | 2.0 | 0.10 | 2.98 | 2.98 | 100 | 1010.8 |
| 20260508234811 | 68 | 163 | 0.0 | 2.0 | 0.14 | 2.98 | 2.98 | 100 | 1010.8 |
| 20260508234305 | 68 | 191 | 1.0 | 2.0 | 0.15 | 2.98 | 2.98 | 100 | 1010.9 |
| 20260508233759 | 68 | 213 | 0.0 | 2.0 | 0.15 | 2.98 | 2.98 | 100 | 1010.8 |
| 20260508233253 | 68 | 149 | 0.0 | 2.0 | 0.15 | 2.98 | 2.98 | 100 | 1011.1 |
| 20260508232747 | 68 | 193 | 0.0 | 2.0 | 0.15 | 2.98 | 2.98 | 100 | 1010.9 |
| 20260508232241 | 68 | 183 | 0.0 | 2.0 | 0.15 | 2.98 | 2.98 | 100 | 1011.1 |
| 20260508231735 | 68 | 176 | 0.0 | 3.0 | 0.14 | 2.97 | 2.97 | 100 | 1010.9 |
| 20260508231229 | 68 | 246 | 0.0 | 3.0 | 0.12 | 2.95 | 2.96 | 100 | 1010.9 |
| 20260508230723 | 68 | 141 | 0.0 | 2.0 | 0.08 | 2.91 | 2.91 | 100 | 1010.9 |
| 20260508230217 | 68 | 182 | 2.0 | 7.0 | 0.08 | 2.91 | 2.91 | 100 | 1011.2 |
| 20260508225711 | 68 | 279 | 3.0 | 7.0 | 0.06 | 2.89 | 2.89 | 100 | 1010.9 |
| 20260508225204 | 68 | 274 | 2.0 | 5.0 | 0.04 | 2.87 | 2.88 | 100 | 1010.8 |
| 20260508224659 | 68 | 261 | 1.0 | 3.0 | 0.00 | 2.83 | 2.83 | 100 | 1011.2 |
| 20260508224153 | 68 | 253 | 0.0 | 2.0 | 0.01 | 2.83 | 2.83 | 100 | 1011.3 |
| 20260508223647 | 68 | 253 | 0.0 | 1.0 | 0.04 | 2.83 | 2.83 | 100 | 1011.3 |
| 20260508223141 | 68 | 253 | 0.0 | 1.0 | 0.05 | 2.83 | 2.83 | 100 | 1011.4 |
| 20260508222635 | 68 | 253 | 0.0 | 1.0 | 0.06 | 2.83 | 2.83 | 100 | 1011.3 |
| 20260508222129 | 68 | 253 | 0.0 | 0.0 | 0.07 | 2.83 | 2.83 | 100 | 1011.4 |
| 20260508221623 | 68 | 253 | 0.0 | 0.0 | 0.08 | 2.83 | 2.83 | 100 | 1011.3 |
| 20260508221603 | 68 | 253 | 1.0 | 3.0 | 0.10 | 2.83 | 2.83 | 100 | 1011.2 |
| 20260508220833 | 68 | 253 | 2.0 | 3.0 | 0.10 | 2.83 | 2.83 | 100 | 1011.3 |
| 20260508220105 | 68 | 267 | 2.0 | 3.0 | 0.11 | 2.83 | 2.83 | 100 | 1011.2 |
| 20260508215558 | 68 | 246 | 1.0 | 3.0 | 0.13 | 2.83 | 2.83 | 100 | 1011.5 |
| 20260508215052 | 68 | 274 | 2.0 | 4.0 | 0.15 | 2.83 | 2.83 | 100 | 1011.5 |
| 20260508214547 | 68 | 272 | 3.0 | 5.0 | 0.16 | 2.83 | 2.83 | 100 | 1011.6 |
| 20260508214041 | 68 | 301 | 3.0 | 5.0 | 0.14 | 2.81 | 2.82 | 100 | 1011.5 |
| 20260508213535 | 68 | 259 | 2.0 | 4.0 | 0.12 | 2.79 | 2.79 | 100 | 1011.8 |
| 20260508213304 | 68 | 309 | 2.0 | 4.0 | 0.11 | 2.78 | 2.78 | 100 | 1012.1 |
| 20260508212523 | 68 | 303 | 2.0 | 4.0 | 0.11 | 2.77 | 2.77 | 100 | 1012.1 |
| 20260508212234 | 68 | 40 | 2.0 | 3.0 | 0.11 | 2.76 | 2.76 | 100 | 1012.1 |
| 20260508211511 | 67 | 253 | 2.0 | 3.0 | 0.09 | 2.74 | 2.74 | 100 | 1012.0 |
| 20260508211006 | 67 | 52 | 3.0 | 7.0 | 0.09 | 2.73 | 2.73 | 100 | 1012.1 |
| 20260508210459 | 67 | 292 | 3.0 | 7.0 | 0.08 | 2.72 | 2.73 | 100 | 1011.8 |
| 20260508205953 | 67 | 281 | 2.0 | 5.0 | 0.07 | 2.71 | 2.71 | 100 | 1011.8 |
| 20260508205447 | 67 | 304 | 2.0 | 3.0 | 0.06 | 2.69 | 2.69 | 100 | 1012.0 |
| 20260508204941 | 67 | 41 | 2.0 | 5.0 | 0.05 | 2.68 | 2.68 | 100 | 1012.0 |
| 20260508204435 | 67 | 266 | 2.0 | 5.0 | 0.04 | 2.67 | 2.67 | 100 | 1011.9 |
| 20260508203929 | 67 | 75 | 3.0 | 6.0 | 0.04 | 2.67 | 2.67 | 100 | 1011.8 |
| 20260508203645 | 67 | 289 | 4.0 | 7.0 | 0.05 | 2.67 | 2.67 | 100 | 1011.6 |
| 20260508202917 | 67 | 289 | 4.0 | 7.0 | 0.05 | 2.66 | 2.66 | 100 | 1011.5 |
| 20260508202411 | 67 | 284 | 3.0 | 6.0 | 0.07 | 2.66 | 2.66 | 100 | 1011.3 |
| 20260508201905 | 67 | 274 | 2.0 | 6.0 | 0.10 | 2.65 | 2.65 | 100 | 1011.4 |
| 20260508201359 | 66 | 267 | 1.0 | 5.0 | 0.14 | 2.65 | 2.65 | 100 | 1011.4 |
| 20260508200852 | 66 | 187 | 1.0 | 4.0 | 0.17 | 2.64 | 2.64 | 100 | 1011.3 |
| 20260508200347 | 66 | 128 | 1.0 | 5.0 | 0.21 | 2.64 | 2.64 | 100 | 1011.4 |
| 20260508195842 | 66 | 265 | 1.0 | 6.0 | 0.25 | 2.64 | 2.64 | 100 | 1011.5 |
| 20260508195335 | 66 | 262 | 2.0 | 6.0 | 0.27 | 2.63 | 2.63 | 100 | 1011.5 |
| 20260508194830 | 66 | 59 | 4.0 | 11.0 | 0.28 | 2.63 | 2.63 | 100 | 1011.2 |
| 20260508194330 | 66 | 263 | 3.0 | 11.0 | 0.30 | 2.63 | 2.63 | 100 | 1011.4 |
| 20260508193831 | 66 | 236 | 2.0 | 6.0 | 0.30 | 2.63 | 2.63 | 99 | 1011.7 |
| 20260508193328 | 66 | 262 | 2.0 | 6.0 | 0.48 | 2.62 | 2.62 | 100 | 1012.5 |
| 20260508192827 | 66 | 279 | 1.0 | 5.0 | 0.63 | 2.61 | 2.61 | 100 | 1013.3 |
| 20260508192329 | 66 | 323 | 0.0 | 4.0 | 0.81 | 2.59 | 2.59 | 100 | 1013.4 |
| 20260508191827 | 66 | 120 | 0.0 | 1.0 | 1.01 | 2.54 | 2.54 | 99 | 1013.9 |
| 20260508191325 | 66 | 112 | 0.0 | 5.0 | 1.26 | 2.51 | 2.52 | 99 | 1014.0 |
| 20260508190826 | 66 | 112 | 1.0 | 5.0 | 1.37 | 2.47 | 2.47 | 99 | 1014.1 |
| 20260508190323 | 66 | 130 | 1.0 | 5.0 | 1.35 | 2.43 | 2.43 | 99 | 1013.8 |
| 20260508185824 | 66 | 128 | 1.0 | 5.0 | 1.31 | 2.39 | 2.40 | 99 | 1013.4 |
| 20260508185324 | 66 | 138 | 0.0 | 4.0 | 1.30 | 2.36 | 2.37 | 99 | 1013.8 |
| 20260508184825 | 66 | 151 | 0.0 | 2.0 | 1.29 | 2.34 | 2.35 | 99 | 1013.7 |
| 20260508184324 | 66 | 151 | 1.0 | 7.0 | 1.30 | 2.33 | 2.34 | 99 | 1013.4 |
| 20260508183824 | 66 | 113 | 1.0 | 7.0 | 1.32 | 2.33 | 2.33 | 99 | 1013.0 |
| 20260508183324 | 66 | 265 | 2.0 | 7.0 | 1.20 | 2.14 | 2.17 | 99 | 1012.8 |
| 20260508182825 | 66 | 264 | 2.0 | 7.0 | 1.10 | 1.98 | 1.98 | 99 | 1013.1 |
| 20260508182550 | 66 | 177 | 2.0 | 7.0 | 0.92 | 1.78 | 1.80 | 99 | 1013.8 |
| 20260508181823 | 66 | 171 | 3.0 | 9.0 | 0.66 | 1.47 | 1.53 | 99 | 1013.6 |
| 20260508181323 | 65 | 191 | 4.0 | 9.0 | 0.60 | 1.25 | 1.25 | 99 | 1013.1 |
| 20260508181050 | 65 | 103 | 3.0 | 9.0 | 0.58 | 1.10 | 1.11 | 98 | 1013.5 |
| 20260508180325 | 66 | 100 | 2.0 | 7.0 | 0.80 | 1.08 | 1.08 | 98 | 1012.8 |
| 20260508175824 | 66 | 87 | 1.0 | 6.0 | 0.90 | 1.08 | 1.08 | 98 | 1012.6 |
| 20260508175323 | 66 | 142 | 1.0 | 5.0 | 0.95 | 1.06 | 1.06 | 98 | 1012.5 |
| 20260508174823 | 67 | 141 | 0.0 | 3.0 | 1.03 | 1.05 | 1.05 | 99 | 1012.5 |
| 20260508174323 | 67 | 123 | 0.0 | 3.0 | 1.02 | 1.03 | 1.03 | 99 | 1012.8 |
| 20260508173824 | 67 | 147 | 0.0 | 3.0 | 1.01 | 1.01 | 1.01 | 99 | 1012.8 |
| 20260508173551 | 67 | 142 | 1.0 | 3.0 | 0.94 | 0.94 | 0.96 | 99 | 1013.3 |
| 20260508172821 | 67 | 128 | 1.0 | 3.0 | 0.88 | 0.88 | 0.89 | 99 | 1013.1 |
| 20260508172321 | 67 | 176 | 2.0 | 8.0 | 0.86 | 0.86 | 0.87 | 98 | 1012.7 |
| 20260508171819 | 67 | 309 | 3.0 | 8.0 | 0.81 | 0.81 | 0.82 | 99 | 1012.8 |
| 20260508171317 | 67 | 189 | 4.0 | 14.0 | 0.65 | 0.65 | 0.67 | 98 | 1012.4 |
| 20260508171037 | 67 | 48 | 5.0 | 14.0 | 0.52 | 0.52 | 0.52 | 98 | 1012.3 |
| 20260508170318 | 67 | 7 | 3.0 | 8.0 | 0.28 | 0.28 | 0.31 | 98 | 1012.3 |
| 20260508165817 | 67 | 79 | 3.0 | 11.0 | 0.18 | 0.18 | 0.19 | 97 | 1012.5 |
| 20260508165319 | 67 | 188 | 2.0 | 11.0 | 0.11 | 0.11 | 0.12 | 97 | 1012.5 |
| 20260508164811 | 67 | 118 | 2.0 | 11.0 | 0.02 | 0.02 | 0.02 | 96 | 1012.3 |
| 20260508164540 | 68 | 284 | 3.0 | 11.0 | 0.01 | 0.01 | 0.01 | 96 | 1011.6 |
| 20260508164031 | 68 | 130 | 2.0 | 7.0 | 0.00 | 0.00 | 0.00 | 95 | 1011.8 |
| 20260508163310 | 68 | 185 | 2.0 | 5.0 | 0.00 | 0.00 | 0.00 | 95 | 1012.0 |
| 20260508162810 | 69 | 226 | 2.0 | 6.0 | 0.00 | 0.00 | 0.00 | 94 | 1011.9 |
| 20260508162310 | 69 | 149 | 2.0 | 6.0 | 0.00 | 0.00 | 0.00 | 93 | 1012.2 |
| 20260508161811 | 70 | 204 | 2.0 | 6.0 | 0.00 | 0.00 | 0.00 | 92 | 1012.6 |
| 20260508161525 | 71 | 236 | 2.0 | 6.0 | 0.00 | 0.00 | 0.00 | 91 | 1012.3 |
| 20260508160807 | 72 | 194 | 2.0 | 6.0 | 0.00 | 0.00 | 0.00 | 91 | 1012.7 |
| 20260508160306 | 72 | 156 | 1.0 | 6.0 | 0.00 | 0.00 | 0.00 | 91 | 1012.6 |
| 20260508155806 | 73 | 227 | 1.0 | 2.0 | 0.00 | 0.00 | 0.00 | 90 | 1013.0 |
| 20260508155747 | 73 | 196 | 1.0 | 3.0 | 0.00 | 0.00 | 0.00 | 90 | 1013.0 |
| 20260508154806 | 73 | 123 | 1.0 | 4.0 | 0.00 | 0.00 | 0.00 | 90 | 1012.8 |
| 20260508154307 | 74 | 238 | 1.0 | 4.0 | 0.00 | 0.00 | 0.00 | 89 | 1012.9 |
| 20260508154026 | 74 | 131 | 1.0 | 4.0 | 0.00 | 0.00 | 0.00 | 89 | 1013.1 |
| 20260508153746 | 74 | 154 | 0.0 | 3.0 | 0.00 | 0.00 | 0.00 | 89 | 1013.2 |
| 20260508152802 | 74 | 177 | 0.0 | 2.0 | 0.00 | 0.00 | 0.00 | 90 | 1013.3 |
| 20260508152305 | 73 | 236 | 1.0 | 2.0 | 0.00 | 0.00 | 0.00 | 91 | 1013.6 |
| 20260508151803 | 73 | 236 | 0.0 | 2.0 | 0.00 | 0.00 | 0.00 | 90 | 1013.7 |
| 20260508151302 | 73 | 236 | 0.0 | 3.0 | 0.00 | 0.00 | 0.00 | 91 | 1013.7 |